User: anonymous   Login
Location: Unspecified
(0.0000°N, 0.0000°E)
Time: 08:00:44
(UTC+01:00)
Language:

deb Ariane - Orbit

View from above orbital plane
View from above orbital plane
View from above satellite
View from above satellite

Ground track
Ground track

The orbit data is extracted from the following two-line orbital elements,

1 25668U 92060E   14303.71179714  .00855018 -36628-6  93223-3 0  7182
2 25668 007.4749 062.5323 5079811 203.2384 038.6588 05.69476068253711
Epoch (UTC): 30 October 2014 17:04:59
Eccentricity: 0.5079811
inclination: 7.4749°
perigee height: 139 km
apogee height: 13596 km
right ascension of ascending node: 62.5323°
argument of perigee: 203.2384°
revolutions per day: 5.69476068
mean anomaly at epoch: 38.6588°
orbit number at epoch: 25371

The dashed part of the orbit path shows where the satellite is in the earth's shadow,  

DLR